SWA128 KDEN-KCOS

Flight info

Callsign SWA128
Flight time 0h 21m
Altitude 17000
Route LUFSE/N0367F160
Aircraft B738/M-SDE2E3FGHIRWXY/LB1

Departure

Time 2026-04-26 20:04
Airport Denver International Airport (KDEN)

Arrival

Time 2026-04-26 20:26
Airport City of Colorado Springs Municipal Airport (KCOS)
Time Latitude Longitude Altitude Speed Heading
2026-04-26 19:29 39.86352 -104.67106 5373 ft 0 kts 206°
2026-04-26 19:52 39.86355 -104.67104 5368 ft 3 kts 206°
2026-04-26 19:52 39.86379 -104.67088 5376 ft 4 kts 206°
2026-04-26 19:52 39.86404 -104.67073 5373 ft 4 kts 206°
2026-04-26 19:53 39.86428 -104.67058 5373 ft 4 kts 206°
2026-04-26 19:53 39.86433 -104.67055 5371 ft 1 kts 206°
2026-04-26 19:58 39.86432 -104.67056 5371 ft 1 kts 206°
2026-04-26 19:58 39.86422 -104.67052 5372 ft 2 kts 146°
2026-04-26 19:58 39.86412 -104.67019 5371 ft 8 kts 100°
2026-04-26 19:58 39.86410 -104.66925 5374 ft 13 kts 91°
2026-04-26 19:59 39.86409 -104.66802 5378 ft 13 kts 90°
2026-04-26 19:59 39.86409 -104.66682 5379 ft 13 kts 90°
2026-04-26 19:59 39.86437 -104.66581 5377 ft 13 kts 31°
2026-04-26 19:59 39.86501 -104.66506 5383 ft 13 kts 76°
2026-04-26 20:00 39.86502 -104.66391 5389 ft 13 kts 91°
2026-04-26 20:00 39.86501 -104.66283 5391 ft 9 kts 89°
2026-04-26 20:00 39.86544 -104.66227 5391 ft 10 kts
2026-04-26 20:00 39.86623 -104.66225 5388 ft 12 kts
2026-04-26 20:01 39.86716 -104.66224 5384 ft 15 kts 360°
2026-04-26 20:01 39.86830 -104.66223 5376 ft 18 kts 360°
2026-04-26 20:01 39.86958 -104.66222 5372 ft 19 kts
2026-04-26 20:01 39.87089 -104.66219 5373 ft 18 kts
2026-04-26 20:02 39.87215 -104.66218 5376 ft 18 kts
2026-04-26 20:02 39.87337 -104.66216 5384 ft 17 kts
2026-04-26 20:02 39.87455 -104.66214 5389 ft 17 kts
2026-04-26 20:02 39.87493 -104.66213 5390 ft 16 kts
2026-04-26 20:03 39.87677 -104.66212 5393 ft 15 kts
2026-04-26 20:03 39.87753 -104.66144 5387 ft 15 kts 77°
2026-04-26 20:03 39.87754 -104.65991 5389 ft 23 kts 90°
2026-04-26 20:03 39.87753 -104.65577 5387 ft 78 kts 90°
2026-04-26 20:04 39.87745 -104.64581 5378 ft 141 kts 92°
2026-04-26 20:04 39.87727 -104.63076 5431 ft 186 kts 89°
2026-04-26 20:04 39.87615 -104.61327 5984 ft 201 kts 96°
2026-04-26 20:04 39.87228 -104.59556 6739 ft 206 kts 121°
2026-04-26 20:05 39.86326 -104.58145 7466 ft 200 kts 133°
2026-04-26 20:05 39.85403 -104.56813 8194 ft 195 kts 133°
2026-04-26 20:05 39.84518 -104.55501 8879 ft 192 kts 133°
2026-04-26 20:05 39.83647 -104.54195 9522 ft 190 kts 133°
2026-04-26 20:06 39.83077 -104.53335 9912 ft 189 kts 133°
2026-04-26 20:06 39.81877 -104.51499 10204 ft 215 kts 133°
2026-04-26 20:06 39.80863 -104.49944 10380 ft 236 kts 133°
2026-04-26 20:06 39.80060 -104.48898 10482 ft 249 kts 146°
2026-04-26 20:07 39.77836 -104.47878 10776 ft 272 kts 171°
2026-04-26 20:07 39.75873 -104.47469 10946 ft 299 kts 173°
2026-04-26 20:07 39.73723 -104.47087 11018 ft 324 kts 174°
2026-04-26 20:07 39.71402 -104.46726 11029 ft 347 kts 174°
2026-04-26 20:08 39.68969 -104.46324 11021 ft 355 kts 174°
2026-04-26 20:08 39.66513 -104.45907 10998 ft 357 kts 174°
2026-04-26 20:08 39.64880 -104.45630 10983 ft 357 kts 174°
2026-04-26 20:08 39.62412 -104.45211 10986 ft 358 kts 174°
2026-04-26 20:09 39.59942 -104.44790 10950 ft 359 kts 173°
2026-04-26 20:09 39.57466 -104.44370 10942 ft 358 kts 174°
2026-04-26 20:09 39.55005 -104.43960 10928 ft 357 kts 174°
2026-04-26 20:09 39.52529 -104.43552 10916 ft 358 kts 174°
2026-04-26 20:10 39.50058 -104.43144 10907 ft 358 kts 174°
2026-04-26 20:10 39.47586 -104.42735 10893 ft 358 kts 174°
2026-04-26 20:10 39.45109 -104.42324 10883 ft 359 kts 174°
2026-04-26 20:10 39.42630 -104.41912 10867 ft 359 kts 174°
2026-04-26 20:11 39.40146 -104.41501 10862 ft 359 kts 174°
2026-04-26 20:11 39.37666 -104.41090 10864 ft 359 kts 174°
2026-04-26 20:11 39.35187 -104.40679 10862 ft 359 kts 175°
2026-04-26 20:12 39.30282 -104.39865 10869 ft 352 kts 176°
2026-04-26 20:12 39.27857 -104.39465 10884 ft 351 kts 176°
2026-04-26 20:12 39.25464 -104.39071 10898 ft 351 kts 176°
2026-04-26 20:12 39.23038 -104.38671 10892 ft 351 kts 176°
2026-04-26 20:13 39.20620 -104.38370 10902 ft 347 kts 182°
2026-04-26 20:13 39.18189 -104.38473 10915 ft 344 kts 186°
2026-04-26 20:13 39.15878 -104.38633 10916 ft 320 kts 186°
2026-04-26 20:13 39.13736 -104.38764 10924 ft 297 kts 186°
2026-04-26 20:14 39.11751 -104.38872 10932 ft 275 kts 186°
2026-04-26 20:14 39.09912 -104.38967 10952 ft 254 kts 187°
2026-04-26 20:14 39.08203 -104.39054 10947 ft 237 kts 187°
2026-04-26 20:14 39.06619 -104.39134 10955 ft 219 kts 187°
2026-04-26 20:15 39.05157 -104.39207 10954 ft 200 kts 188°
2026-04-26 20:15 39.03803 -104.39277 10990 ft 193 kts 188°
2026-04-26 20:15 39.02462 -104.39348 11015 ft 194 kts 188°
2026-04-26 20:15 39.01073 -104.39425 11031 ft 210 kts 188°
2026-04-26 20:16 38.99597 -104.39502 11004 ft 212 kts 188°
2026-04-26 20:16 38.98148 -104.39716 10985 ft 207 kts 205°
2026-04-26 20:16 38.97004 -104.40748 11016 ft 201 kts 229°
2026-04-26 20:16 38.96330 -104.42315 11021 ft 204 kts 251°
2026-04-26 20:17 38.96276 -104.44167 11016 ft 214 kts 275°
2026-04-26 20:17 38.96900 -104.45946 11019 ft 227 kts 301°
2026-04-26 20:17 38.98045 -104.47395 11035 ft 233 kts 309°
2026-04-26 20:17 38.98842 -104.48310 11025 ft 230 kts 309°
2026-04-26 20:18 39.00408 -104.50099 11017 ft 222 kts 308°
2026-04-26 20:18 39.01546 -104.51424 11014 ft 219 kts 305°
2026-04-26 20:18 39.02628 -104.52808 11016 ft 220 kts 306°
2026-04-26 20:18 39.03763 -104.54139 11042 ft 221 kts 308°
2026-04-26 20:19 39.04905 -104.55461 11040 ft 217 kts 300°
2026-04-26 20:19 39.05389 -104.57122 11024 ft 191 kts 258°
2026-04-26 20:19 39.05326 -104.58834 11013 ft 193 kts 260°
2026-04-26 20:19 39.05294 -104.60567 11005 ft 194 kts 260°
2026-04-26 20:20 39.05260 -104.62304 11020 ft 195 kts 261°
2026-04-26 20:20 39.05224 -104.64034 10966 ft 198 kts 261°
2026-04-26 20:20 39.05188 -104.65797 10882 ft 197 kts 260°
2026-04-26 20:20 39.05150 -104.67558 10683 ft 196 kts 261°
2026-04-26 20:21 39.05040 -104.69298 10397 ft 193 kts 246°
2026-04-26 20:21 39.04282 -104.70649 10189 ft 187 kts 216°
2026-04-26 20:21 39.03139 -104.71418 10007 ft 188 kts 196°
2026-04-26 20:21 39.01824 -104.71540 9791 ft 191 kts 184°
2026-04-26 20:22 39.00504 -104.71541 9558 ft 187 kts 184°
2026-04-26 20:22 38.99233 -104.71541 9308 ft 178 kts 182°
2026-04-26 20:22 38.98036 -104.71538 9120 ft 164 kts 182°
2026-04-26 20:22 38.96945 -104.71550 8897 ft 152 kts 187°
2026-04-26 20:23 38.95784 -104.71648 8911 ft 178 kts 187°
2026-04-26 20:23 38.94580 -104.71699 8655 ft 168 kts 184°
2026-04-26 20:23 38.93452 -104.71643 8448 ft 157 kts 181°
2026-04-26 20:23 38.92382 -104.71540 8180 ft 152 kts 180°
2026-04-26 20:24 38.91263 -104.71458 7824 ft 180 kts 180°
2026-04-26 20:24 38.89952 -104.71414 7801 ft 192 kts 180°
2026-04-26 20:24 38.88597 -104.71491 7679 ft 196 kts 185°
2026-04-26 20:24 38.87273 -104.71648 7560 ft 182 kts 181°
2026-04-26 20:25 38.86063 -104.71633 7272 ft 166 kts 181°
2026-04-26 20:25 38.85316 -104.71625 7096 ft 158 kts 181°
2026-04-26 20:25 38.83914 -104.71615 6661 ft 143 kts 178°
2026-04-26 20:25 38.82936 -104.71603 6362 ft 137 kts 177°
2026-04-26 20:26 38.82028 -104.71588 6195 ft 117 kts 178°
2026-04-26 20:26 38.81446 -104.71590 6190 ft 43 kts 181°
2026-04-26 20:26 38.81178 -104.71590 6193 ft 34 kts 180°
2026-04-26 20:26 38.80957 -104.71590 6194 ft 30 kts 180°
2026-04-26 20:27 38.80758 -104.71591 6194 ft 28 kts 179°
2026-04-26 20:27 38.80572 -104.71563 6193 ft 26 kts 164°
2026-04-26 20:27 38.80416 -104.71470 6192 ft 17 kts 150°
2026-04-26 20:27 38.80408 -104.71464 6191 ft 0 kts 150°
2026-04-26 20:28 38.80399 -104.71457 6192 ft 3 kts 150°
2026-04-26 20:28 38.80364 -104.71432 6192 ft 9 kts 150°
2026-04-26 20:29 38.80294 -104.71377 6192 ft 12 kts 135°
2026-04-26 20:29 38.80281 -104.71298 6192 ft 10 kts 90°
2026-04-26 20:29 38.80280 -104.71181 6192 ft 16 kts 89°
2026-04-26 20:29 38.80280 -104.71011 6192 ft 22 kts 90°
2026-04-26 20:30 38.80280 -104.70796 6192 ft 26 kts 88°
2026-04-26 20:30 38.80280 -104.70541 6192 ft 31 kts 88°
2026-04-26 20:30 38.80280 -104.70245 6193 ft 34 kts 90°
2026-04-26 20:30 38.80278 -104.70134 6193 ft 10 kts 99°